Greenville, TX

1:34 AM CDT on April 30, 2017 (GMT -0500)
Majors

Weather History for KGVT - April, 2014

Change the Weather History Date:

Friday, April 11, 2014

  Actual Average Record
Temperature  
Mean Temperature 70 °F -  
Max Temperature 80 °F 71 °F 80 °F (2002)
Min Temperature 60 °F 53 °F 35 °F (2013)
Cooling Degree Days 5    
Growing Degree Days 20 (Base 50)    
Moisture  
Dew Point 56 °F    
Average Humidity 63    
Maximum Humidity 83    
Minimum Humidity 42    
Precipitation  
Precipitation 0.00 in - - ()
Sea Level Pressure  
Sea Level Pressure 29.97 in    
Wind  
Wind Speed 13 mph (South)    
Max Wind Speed 21 mph    
Max Gust Speed 26 mph    
Visibility 10 miles    
Events      
Averages and records for this station are not official NWS values.
T = Trace of Precipitation, MM = Missing Value Source: NWS Daily Summary

Daily Weather History Graph

Daily Weather History Graph

Search for Another Location

Airport or City:

Trip Planner

Search our weather history database for the weather conditions in past years. The results will help you decide how hot, cold, wet, or windy it might be!

Date:

Astronomy

Apr. 11, 2014 Rise Set
Actual Time 6:59 AM CDT 7:51 PM CDT
Civil Twilight 6:34 AM CDT 8:17 PM CDT
Nautical Twilight 6:04 AM CDT 8:46 PM CDT
Astronomical Twilight 5:33 AM CDT 9:17 PM CDT
Moon 4:43 PM CDT (4/11) 4:44 AM CDT (4/11)
Length of Visible Light 13h 43m
Length of Day
12h 52m
Waxing Gibbous, 87% of the Moon is Illuminated
Apr 11
Waxing Gibbous
Apr 15
Full
Apr 22
Last Quarter
Apr 29
New
May 6
First Quarter

Hourly Weather History & Observations

Time (CDT) Temp. Heat Index Dew Point Humidity Pressure Visibility Wind Dir Wind Speed Gust Speed Precip Events Conditions
12:15 AM 68.0 °F - 50.0 °F 52% 29.95 in 10.0 mi South 15.0 mph 21.9 mph N/A   Clear
12:35 AM 68.0 °F - 50.0 °F 52% 29.95 in 10.0 mi South 13.8 mph 20.7 mph N/A   Clear
12:55 AM 68.0 °F - 50.0 °F 52% 29.96 in 10.0 mi South 16.1 mph 21.9 mph N/A   Clear
1:15 AM 68.0 °F - 50.0 °F 52% 29.96 in 10.0 mi South 15.0 mph 19.6 mph N/A   Clear
1:35 AM 66.2 °F - 50.0 °F 56% 29.96 in 10.0 mi South 15.0 mph - N/A   Clear
1:55 AM 64.4 °F - 50.0 °F 59% 29.96 in 10.0 mi South 16.1 mph 21.9 mph N/A   Clear
2:15 AM 64.4 °F - 50.0 °F 59% 29.95 in 10.0 mi South 15.0 mph - N/A   Clear
2:35 AM 64.4 °F - 50.0 °F 59% 29.95 in 10.0 mi South 16.1 mph - N/A   Clear
2:55 AM 64.4 °F - 50.0 °F 59% 29.95 in 10.0 mi South 13.8 mph - N/A   Clear
3:15 AM 62.6 °F - 50.0 °F 63% 29.95 in 10.0 mi South 9.2 mph - N/A   Clear
3:35 AM 62.6 °F - 50.0 °F 63% 29.95 in 10.0 mi South 12.7 mph 17.3 mph N/A   Clear
3:55 AM 62.6 °F - 51.8 °F 68% 29.95 in 10.0 mi South 10.4 mph - N/A   Clear
4:15 AM 62.6 °F - 51.8 °F 68% 29.94 in 10.0 mi South 11.5 mph 16.1 mph N/A   Clear
4:35 AM 60.8 °F - 51.8 °F 72% 29.94 in 10.0 mi South 12.7 mph - N/A   Clear
4:55 AM 60.8 °F - 51.8 °F 72% 29.94 in 10.0 mi South 12.7 mph - N/A   Clear
5:15 AM 60.8 °F - 53.6 °F 77% 29.95 in 10.0 mi South 11.5 mph - N/A   Clear
5:35 AM 60.8 °F - 53.6 °F 77% 29.95 in 10.0 mi South 10.4 mph - N/A   Mostly Cloudy
5:55 AM 60.8 °F - 53.6 °F 77% 29.96 in 10.0 mi South 10.4 mph 16.1 mph N/A   Overcast
6:15 AM 62.6 °F - 55.4 °F 77% 29.97 in 10.0 mi South 10.4 mph 18.4 mph N/A   Overcast
6:35 AM 62.6 °F - 55.4 °F 77% 29.97 in 10.0 mi South 12.7 mph 18.4 mph N/A   Overcast
6:55 AM 62.6 °F - 55.4 °F 77% 29.97 in 10.0 mi South 15.0 mph 21.9 mph N/A   Overcast
7:15 AM 62.6 °F - 55.4 °F 77% 29.97 in 10.0 mi South 12.7 mph 19.6 mph N/A   Overcast
7:35 AM 62.6 °F - 55.4 °F 77% 29.98 in 10.0 mi South 15.0 mph - N/A   Overcast
7:55 AM 62.6 °F - 55.4 °F 77% 29.99 in 10.0 mi South 12.7 mph - N/A   Overcast
8:15 AM 62.6 °F - 55.4 °F 77% 30.00 in 10.0 mi South 10.4 mph - N/A   Overcast
8:35 AM 62.6 °F - 55.4 °F 77% 30.00 in 10.0 mi South 11.5 mph - N/A   Overcast
9:15 AM 64.4 °F - 55.4 °F 73% 30.02 in 10.0 mi South 13.8 mph - N/A   Overcast
9:35 AM 64.4 °F - 55.4 °F 73% 30.02 in 10.0 mi South 11.5 mph - N/A   Overcast
9:55 AM 64.4 °F - 55.4 °F 73% 30.04 in 10.0 mi SSW 13.8 mph 21.9 mph N/A   Overcast
10:15 AM 64.4 °F - 55.4 °F 73% 30.04 in 10.0 mi South 16.1 mph 21.9 mph N/A   Overcast
10:35 AM 68.0 °F - 57.2 °F 68% 30.04 in 10.0 mi South 15.0 mph 23.0 mph N/A   Overcast
10:55 AM 68.0 °F - 57.2 °F 68% 30.04 in 10.0 mi South 18.4 mph - N/A   Overcast
11:15 AM 69.8 °F - 57.2 °F 64% 30.04 in 10.0 mi South 20.7 mph 24.2 mph N/A   Overcast
11:35 AM 71.6 °F - 57.2 °F 60% 30.05 in 10.0 mi South 17.3 mph 24.2 mph N/A   Overcast
11:55 AM 71.6 °F - 57.2 °F 60% 30.05 in 10.0 mi SSW 18.4 mph 26.5 mph N/A   Mostly Cloudy
12:15 PM 71.6 °F - 57.2 °F 60% 30.04 in 10.0 mi South 13.8 mph - N/A   Mostly Cloudy
12:35 PM 73.4 °F - 57.2 °F 57% 30.03 in 10.0 mi South 13.8 mph - N/A   Mostly Cloudy
12:55 PM 75.2 °F - 57.2 °F 53% 30.03 in 10.0 mi SSW 11.5 mph 19.6 mph N/A   Mostly Cloudy
1:15 PM 75.2 °F - 57.2 °F 53% 30.01 in 10.0 mi SSW 11.5 mph 17.3 mph N/A   Mostly Cloudy
1:35 PM 75.2 °F - 59.0 °F 57% 30.01 in 10.0 mi South 15.0 mph 19.6 mph N/A   Mostly Cloudy
1:55 PM 77.0 °F - 59.0 °F 54% 29.99 in 10.0 mi South 10.4 mph 18.4 mph N/A   Overcast
2:15 PM 77.0 °F - 59.0 °F 54% 29.98 in 10.0 mi SSE 13.8 mph 17.3 mph N/A   Mostly Cloudy
2:35 PM 77.0 °F - 59.0 °F 54% 29.98 in 10.0 mi SSE 17.3 mph 20.7 mph N/A   Mostly Cloudy
2:55 PM 78.8 °F - 59.0 °F 51% 29.97 in 10.0 mi SE 16.1 mph - N/A   Mostly Cloudy
3:15 PM 78.8 °F - 59.0 °F 51% 29.96 in 10.0 mi SE 13.8 mph 19.6 mph N/A   Scattered Clouds
3:35 PM 78.8 °F - 59.0 °F 51% 29.95 in 10.0 mi South 12.7 mph - N/A   Scattered Clouds
3:55 PM 80.6 °F 80.8 °F 57.2 °F 45% 29.95 in 10.0 mi SSE 16.1 mph - N/A   Scattered Clouds
4:15 PM 80.6 °F 80.5 °F 55.4 °F 42% 29.94 in 10.0 mi SSE 16.1 mph 23.0 mph N/A   Scattered Clouds
4:35 PM 80.6 °F 80.5 °F 55.4 °F 42% 29.92 in 10.0 mi South 16.1 mph 23.0 mph N/A   Clear
4:55 PM 80.6 °F 80.5 °F 55.4 °F 42% 29.92 in 10.0 mi South 16.1 mph 23.0 mph N/A   Clear
5:15 PM 80.6 °F 80.5 °F 55.4 °F 42% 29.91 in 10.0 mi SSW 16.1 mph 21.9 mph N/A   Clear
5:35 PM 80.6 °F 80.5 °F 55.4 °F 42% 29.92 in 10.0 mi South 17.3 mph 20.7 mph N/A   Clear
5:55 PM 80.6 °F 80.5 °F 55.4 °F 42% 29.92 in 10.0 mi South 18.4 mph 24.2 mph N/A   Clear
6:15 PM 78.8 °F - 55.4 °F 44% 29.92 in 10.0 mi South 17.3 mph - N/A   Clear
6:35 PM 78.8 °F - 55.4 °F 44% 29.92 in 10.0 mi South 12.7 mph - N/A   Clear
6:55 PM 78.8 °F - 55.4 °F 44% 29.92 in 10.0 mi South 12.7 mph - N/A   Clear
7:15 PM 77.0 °F - 57.2 °F 50% 29.93 in 10.0 mi South 9.2 mph - N/A   Clear
7:35 PM 75.2 °F - 57.2 °F 53% 29.93 in 10.0 mi SSE 8.1 mph - N/A   Clear
7:55 PM 71.6 °F - 59.0 °F 64% 29.93 in 10.0 mi SSE 6.9 mph - N/A   Clear
8:15 PM 69.8 °F - 59.0 °F 68% 29.93 in 10.0 mi SE 5.8 mph - N/A   Clear
8:35 PM 68.0 °F - 59.0 °F 73% 29.94 in 10.0 mi SE 5.8 mph - N/A   Clear
8:55 PM 66.2 °F - 59.0 °F 78% 29.95 in 10.0 mi SSE 5.8 mph - N/A   Clear
9:15 PM 66.2 °F - 59.0 °F 78% 29.95 in 10.0 mi SSE 5.8 mph - N/A   Clear
9:35 PM 68.0 °F - 59.0 °F 73% 29.95 in 10.0 mi SSE 6.9 mph - N/A   Clear
9:55 PM 69.8 °F - 59.0 °F 68% 29.95 in 10.0 mi SSE 6.9 mph - N/A   Clear
10:15 PM 68.0 °F - 59.0 °F 73% 29.95 in 10.0 mi SE 6.9 mph - N/A   Clear
10:35 PM 68.0 °F - 59.0 °F 73% 29.96 in 10.0 mi SE 4.6 mph - N/A   Clear
10:55 PM 66.2 °F - 57.2 °F 73% 29.96 in 10.0 mi SSE 4.6 mph - N/A   Clear
11:15 PM 64.4 °F - 57.2 °F 77% 29.95 in 10.0 mi SE 4.6 mph - N/A   Clear
11:35 PM 64.4 °F - 59.0 °F 83% 29.96 in 10.0 mi SSE 6.9 mph - N/A   Clear
11:55 PM 66.2 °F - 59.0 °F 78% 29.96 in 10.0 mi SSE 8.1 mph - N/A   Clear